Location: Seattle
(47.6064°N, 122.3308°W)
Time: 02:30:53
(UTC-08:00)

A-11 Canister half - Pass Details

Date: 02 December 2020
Orbit: 1524 x 1684 km, 47.3° (Epoch: 21 January)

Event Time Altitude Azimuth Distance (km) Brightness Sun altitude
Rises 09:46:06 0° 285° (WNW) 4,923 11.2 14.2°
Reaches altitude 10° 09:49:18 10° 284° (WNW) 3,920 10.8 14.4°
Maximum altitude 09:59:15 71° 203° (SSW) 1,704 9.7 15.3°
Drops below altitude 10° 10:08:52 10° 121° (ESE) 3,791 12.2 16.0°
Sets 10:11:54 0° 120° (ESE) 4,754 12.5 16.3°
